YBBN

Brisbane Airport

Airport
ICAO code
YBBN
IATA Code
BNE
Summary
ICAO Region
APAC
ICAO Territory
Location

Brisbane, Queensland

Serving
Brisbane
Elevation
13 ft
Coordinates
27° 23' 30" S , 153° 7' 21" E
KCC
Metar
YBBN 171400Z 23010KT CAVOK 12/04 Q1015

Description

Serves the city of Brisbane and the surrounding metropolitan area.

Climatology

Humid “subtropical” climate (Köppen climate classification Cfa) - characterized by hot, humid summers and cool winters. Significant amounts of precipitation occur in all seasons in most areas. Most summer rainfall occurs during thunderstorms and occasional tropical storms.

SKYbrary Partners:

Safety knowledge contributed by: